GW2477 Weather Reports


Display with metric or nautical units.
time (UTC)temp
F
wind
direction
speed
MPH
gust
MPH
rain 1hr
in
rain 24hr
in
rain mn
in
humidity
%
barometer
mb
20260505234503 54 127 3.0 9.0 0.00 0.00 0.00 69 1018.4
20260505233040 53 173 0.0 4.0 0.00 0.00 0.00 70 1018.6
20260505231557 53 325 0.0 0.0 0.00 0.00 0.00 70 1018.8
20260505230027 54 330 0.0 2.0 0.00 0.00 0.00 68 1018.9
20260505224553 54 51 0.0 3.0 0.00 0.00 0.00 65 1018.9
20260505223025 54 120 0.0 4.0 0.00 0.00 0.00 70 1019.0
20260505221539 52 155 1.0 2.0 0.00 0.00 0.00 75 1019.2
20260505220015 52 220 0.0 0.0 0.00 0.00 0.00 70 1019.2
20260505214547 52 220 0.0 1.0 0.00 0.00 0.00 68 1019.2
20260505213026 52 259 0.0 0.0 0.00 0.00 0.00 71 1019.2
20260505211552 52 259 0.0 0.0 0.00 0.00 0.00 73 1019.1
20260505210025 52 259 0.0 0.0 0.00 0.00 0.00 72 1019.1
20260505204541 52 259 0.0 0.0 0.00 0.00 0.00 72 1019.4
20260505203041 51 259 0.0 0.0 0.00 0.00 0.00 70 1019.4
20260505201553 51 259 0.0 0.0 0.00 0.00 0.00 69 1019.6
20260505200028 52 259 0.0 0.0 0.00 0.00 0.00 67 1019.7
20260505194559 52 259 0.0 0.0 0.00 0.00 0.00 67 1019.5
20260505194501 52 259 0.0 0.0 0.00 0.00 0.00 67 1019.5
20260505193037 53 259 0.0 0.0 0.00 0.00 0.00 70 1019.5
20260505191505 53 259 0.0 0.0 0.00 0.00 0.00 69 1019.4
20260505190012 53 259 0.0 0.0 0.00 0.00 0.00 70 1019.2
20260505184544 53 259 0.0 0.0 0.00 0.00 0.00 71 1019.2
20260505183014 53 259 0.0 0.0 0.00 0.00 0.00 75 1019.0
20260505181537 54 260 0.0 0.0 0.00 0.00 0.00 74 1019.0
20260505180014 55 260 0.0 0.0 0.00 0.00 0.00 74 1018.9
20260505174539 55 266 0.0 0.0 0.00 0.00 0.00 77 1019.0
20260505173020 56 304 0.0 0.0 0.00 0.00 0.00 79 1019.1
20260505171546 56 304 0.0 0.0 0.00 0.00 0.00 78 1019.0
20260505170016 57 304 0.0 0.0 0.00 0.00 0.00 78 1018.9
20260505164540 57 304 0.0 2.0 0.00 0.00 0.00 77 1018.6
20260505163026 58 309 0.0 0.0 0.00 0.00 0.00 75 1018.8
20260505161546 59 301 0.0 2.0 0.00 0.00 0.00 72 1018.8
20260505153024 63 355 1.0 5.0 0.00 0.00 0.00 67 1019.2
20260505151551 64 9 1.0 4.0 0.00 0.00 0.00 63 1019.2
20260505124554 68 333 1.0 7.0 0.00 0.00 0.00 60 1019.6
20260505123034 66 325 1.0 7.0 0.00 0.00 0.00 63 1019.7
20260505121602 68 319 1.0 5.0 0.00 0.00 0.00 58 1020.0
20260505121502 68 270 1.0 5.0 0.00 0.00 0.00 61 1020.0
20260505120042 67 270 2.0 6.0 0.00 0.00 0.00 60 1020.1
20260505114511 70 343 3.0 8.0 0.00 0.00 0.00 56 1020.0
20260505113103 71 331 2.0 8.0 0.00 0.00 0.00 56 1020.1
20260505111506 69 32 4.0 10.0 0.00 0.00 0.00 62 1019.9
20260505101524 66 350 5.0 10.0 0.00 0.00 0.00 62 1020.4
20260505100055 66 285 1.0 8.0 0.00 0.00 0.00 58 1020.4
20260505094518 65 342 0.0 8.0 0.00 0.00 0.00 55 1020.6
20260505041509 48 131 0.0 3.0 0.00 0.00 0.00 74 1019.8
20260505040019 47 130 0.0 3.0 0.00 0.00 0.00 77 1019.7
20260505034530 47 140 0.0 2.0 0.00 0.00 0.00 82 1019.6
20260505033011 48 127 0.0 3.0 0.00 0.00 0.00 81 1019.7
20260505031525 48 131 0.0 2.0 0.00 0.00 0.00 81 1019.7
20260505030056 47 115 0.0 2.0 0.00 0.00 0.00 76 1019.7
20260505024511 46 157 0.0 2.0 0.00 0.00 0.00 79 1019.8
20260505023040 46 131 2.0 6.0 0.00 0.00 0.00 83 1019.9
20260505021602 46 112 0.0 1.0 0.00 0.00 0.00 83 1020.0
20260505021501 46 112 0.0 1.0 0.00 0.00 0.00 83 1019.9
20260505020027 45 109 0.0 2.0 0.00 0.00 0.00 79 1019.9
20260505014525 45 143 0.0 0.0 0.00 0.00 0.00 73 1019.9
20260505013051 45 161 0.0 1.0 0.00 0.00 0.00 69 1020.1
20260505011510 45 155 0.0 2.0 0.00 0.00 0.00 68 1020.1
20260505010055 44 133 0.0 2.0 0.00 0.00 0.00 63 1020.1
20260505004551 44 133 0.0 2.0 0.00 0.00 0.00 63 1020.1
20260505003015 44 133 0.0 0.0 0.00 0.00 0.00 60 1020.2
20260505001543 45 133 0.0 0.0 0.00 0.00 0.00 60 1020.3
20260505000013 45 133 0.0 0.0 0.00 0.00 0.00 59 1020.1